Flag for Germany Weather past 2 weeks in Bergheim, North Rhine-Westphalia, Germany

Now
68 °F

Broken clouds.


Feels Like: 68 °F
Forecast: 60 / 73 °F
Wind: 3 mph from West

Location: Noervenich

Current Time: Jul 29, 2014 at 6:52:11 PM

Latest Report: Jul 29, 2014 at 6:20 PM


Visibility: N/A

Pressure: 29.80 "Hg

Humidity: 94%

Dew point: 66 °F

Location of BergheimLocation

Historic Weather in Bergheim — Graph

°F

Bergheim temperature yesterday

Maximum temperature yesterday: 79 °F (at 12:20 PM)
Minimum temperature yesterday: 64 °F (at 4:20 AM)
Average temperature yesterday: 69 °F

Past Weeks' High & Low Weather Summary

 TemperatureHumidityPressure
High93 °F (Jul 18, 5:20 PM)100% (Jul 17, 5:20 AM)30.18 "Hg (Jul 17, 5:20 AM)
Low55 °F (Jul 15, 5:20 AM)28% (Jul 18, 5:20 PM)29.77 "Hg (Jul 20, 3:20 AM)
Average70 °F75%29.98 "Hg
* Reported Jul 14 5:20 PM — Jul 29 5:20 PM, Bergheim, Weather by CustomWeather, © 2014

Note: Actual official high and low records may vary slightly from our data, if they occured in-between our weather recording intervals... More about our weather records

Advertising

Bergheim weather history for previous 24 hours

 ConditionsComfort  
Time TempWeatherWind HumidityBarometerVisibility
5:20 PM
Jul 29
70 °FThundershowers. Partly sunny.7 mph88%29.80 "HgN/A
4:20 PM70 °FThundershowers. Partly sunny.5 mph88%29.80 "HgN/A
3:55 PM70 °FThunderstorms. Partly sunny.9 mph94%29.80 "Hg4 mi
3:20 PM75 °FThunderstorms. Partly sunny.1 mph78%29.80 "Hg3 mi
3:03 PM75 °FThundershowers. Partly sunny.3 mph83%29.80 "Hg3 mi
2:20 PM73 °FFog.6 mph89%29.83 "Hg2 mi
1:20 PM70 °FFog.5 mph94%29.83 "Hg2 mi
12:20 PM68 °FFog.5 mph94%29.86 "Hg1 mi
11:20 AM66 °FFog.5 mph100%29.86 "Hg1 mi
11:04 AM66 °FSprinkles. Fog.5 mph100%29.86 "Hg1 mi
10:50 AM66 °FLots of rain. Partly sunny.5 mph94%29.86 "Hg1 mi
10:20 AM68 °FFog.6 mph88%29.86 "Hg2 mi
9:20 AM66 °FFog.6 mph94%29.86 "Hg2 mi
8:20 AM64 °FFog.5 mph100%29.83 "Hg2 mi
7:20 AM64 °FFog.5 mph94%29.83 "Hg2 mi
6:20 AM64 °FSprinkles. Fog.2 mph94%29.83 "Hg2 mi
5:20 AM64 °FFog.3 mph94%29.83 "Hg2 mi
4:20 AM64 °FFog.6 mph94%29.86 "Hg2 mi
3:20 AM66 °FFog.6 mph94%29.86 "Hg3 mi
2:20 AM66 °FPassing clouds.6 mph88%29.86 "Hg4 mi
1:20 AM66 °FPartly cloudy.6 mph94%29.86 "Hg4 mi
12:20 AM66 °FPartly cloudy.3 mph94%29.86 "Hg4 mi
11:20 PM
Jul 28
66 °FPassing clouds.5 mph94%29.86 "Hg4 mi
10:20 PM68 °FPartly sunny.5 mph88%29.86 "Hg4 mi
9:20 PM70 °FPartly sunny.1 mph88%29.86 "Hg4 mi
8:20 PM70 °FPartly sunny.No wind88%29.86 "Hg5 mi
7:20 PM72 °FPartly sunny.3 mph83%29.83 "Hg5 mi
6:20 PM72 °FPartly sunny.5 mph83%29.83 "Hg5 mi
Weather by CustomWeather, © 2014

See weather overviewHow to use our weather pages